THORAD AGENA D DEB, 4607

Orbit data source: Space-Track

THORAD AGENA D DEB, 4607 is space debris in SSO originally from a launch on Wed, 08 Apr 1970 UTC launched from the Air Force Western Test Range (AFWTR). Debris objects in space refer to the collection of defunct objects orbiting the Earth. Examples of debris include non-operational satellites, rocket bodies, and fragments generated from explosions, collisions, or faulty payload assembly.

Loading next visibility...
Identifier
4607, 1970-025K
Orbit
SSO
Country
Flag of USUS
Related business
Manufacturer
Unknown
Mission
Spacecraft
Bus & Motor
Unknown
Mass
Unknown
Launch date (UTC)
1970-04-08 (56 years ago)
Launch vehicle
Unknown
Launch site
Air Force Western Test Range (AFWTR)
Object type
Payload
Rocket body
Debris
Shape & HBR
Unknown shape, 0.3 m
Radar Cross Section
Medium (>0.1 m² and <1 m²)

Expand to show TLE details & history
Last TLE update: 1 day ago

TLE from 1 day ago
0 THORAD AGENA D DEB
1 04607U 70025K   26033.40957757  .00000471  00000-0  22438-2 0  9992
2 04607 100.2101 325.9296 0613510  75.8231  34.0941 12.31172517504709
Epoch: 2026-02-02T09:49Z
TLE epoch observation values (Epoch: 2026-02-02T09:49:47.502Z)
Latitude
64.01561°
Longitude
-112.55357°
Altitude
1,162.693 km
Speed
7.456 km/s
True Right ascension
11h 09m 59s
True Declination
63° 53' 14"
Sunlit
Object was in full shadow at epoch
Visualization orbit readout
Latitude
Unknown
Longitude
Unknown
Altitude
Unknown
Speed
Unknown
Apparent Right ascension
Unknown
Apparent Declination
Unknown
Sunlit
N/A
Visualization observer readout
Local Sidereal Time
13:17:08
Azimuth
Unknown
Elevation
Unknown
Doppler factor
Unknown
Orbital elements
Apogee altitude
2,027.612 km
Perigee altitude
1,055.83 km
Semi-major axis
7,919.858 km
Eccentricity
0.06135
Inclination
100.2101°
RAAN
325.9296°
Arg. of periapsis
75.8231°
True anomaly
38.29762°
Mean anomaly
34.0941°
Eccentric anomaly
36.16862°
Mean motion
3.07941 °/min
Orbital period
116.91 mins
BSTAR
0.0022438

Documentation

Showing up to 5 results
|